Year,Month,Day,Hour,Minute,Value (Times are PST for temperature in C)
2017,12,11,00,00,7.80
2017,12,11,00,01,7.80
2017,12,11,00,02,7.70
2017,12,11,00,03,7.70
2017,12,11,00,04,7.70
2017,12,11,00,05,7.70
2017,12,11,00,06,7.70
2017,12,11,00,07,7.70
2017,12,11,00,08,7.70
2017,12,11,00,09,7.80
2017,12,11,00,10,7.80
2017,12,11,00,11,7.80
2017,12,11,00,12,7.80
2017,12,11,00,13,7.80
2017,12,11,00,14,7.80
2017,12,11,00,15,7.80
2017,12,11,00,16,7.80
2017,12,11,00,17,7.80
2017,12,11,00,18,7.70
2017,12,11,00,19,7.70
2017,12,11,00,20,7.70
2017,12,11,00,21,7.70
2017,12,11,00,22,7.70
2017,12,11,00,23,7.70
2017,12,11,00,24,7.70
2017,12,11,00,25,7.70
2017,12,11,00,26,7.60
2017,12,11,00,27,7.60
2017,12,11,00,28,7.60
2017,12,11,00,29,7.60
2017,12,11,00,30,7.60
2017,12,11,00,31,7.60
2017,12,11,00,32,7.50
2017,12,11,00,33,7.50
2017,12,11,00,34,7.50
2017,12,11,00,35,7.50
2017,12,11,00,36,7.50
2017,12,11,00,37,7.50
2017,12,11,00,38,7.50
2017,12,11,00,39,7.50
2017,12,11,00,40,7.40
2017,12,11,00,41,7.40
2017,12,11,00,42,7.40
2017,12,11,00,43,7.30
2017,12,11,00,44,7.30
2017,12,11,00,45,7.30
2017,12,11,00,46,7.30
2017,12,11,00,47,7.20
2017,12,11,00,48,7.30
2017,12,11,00,49,7.30
2017,12,11,00,50,7.30
2017,12,11,00,51,7.30
2017,12,11,00,52,7.40
2017,12,11,00,53,7.40
2017,12,11,00,54,7.40
2017,12,11,00,55,7.40
2017,12,11,00,56,7.40
2017,12,11,00,57,7.40
2017,12,11,00,58,7.50
2017,12,11,00,59,7.50
2017,12,11,01,00,7.60
2017,12,11,01,01,7.60
2017,12,11,01,02,7.60
2017,12,11,01,03,7.60
2017,12,11,01,04,7.60
2017,12,11,01,05,7.60
2017,12,11,01,06,7.60
2017,12,11,01,07,7.60
2017,12,11,01,08,7.60
2017,12,11,01,09,7.60
2017,12,11,01,10,7.60
2017,12,11,01,11,7.50
2017,12,11,01,12,7.50
2017,12,11,01,13,7.40
2017,12,11,01,14,7.40
2017,12,11,01,15,7.40
2017,12,11,01,16,7.40
2017,12,11,01,17,7.40
2017,12,11,01,18,7.40
2017,12,11,01,19,7.40
2017,12,11,01,20,7.30
2017,12,11,01,21,7.30
2017,12,11,01,22,7.30
2017,12,11,01,23,7.30
2017,12,11,01,24,7.30
2017,12,11,01,25,7.20
2017,12,11,01,26,7.20
2017,12,11,01,27,7.20
2017,12,11,01,28,7.20
2017,12,11,01,29,7.20
2017,12,11,01,30,7.20
2017,12,11,01,31,7.20
2017,12,11,01,32,7.20
2017,12,11,01,33,7.20
2017,12,11,01,34,7.20
2017,12,11,01,35,7.20
2017,12,11,01,36,7.20
2017,12,11,01,37,7.20
2017,12,11,01,38,7.20
2017,12,11,01,39,7.20
2017,12,11,01,40,7.20
2017,12,11,01,41,7.20
2017,12,11,01,42,7.20
2017,12,11,01,43,7.10
2017,12,11,01,44,7.10
2017,12,11,01,45,7.10
2017,12,11,01,46,7.10
2017,12,11,01,47,7.10
2017,12,11,01,48,7.10
2017,12,11,01,49,7.10
2017,12,11,01,50,7.10
2017,12,11,01,51,7.10
2017,12,11,01,52,7.10
2017,12,11,01,53,7.10
2017,12,11,01,54,7.10
2017,12,11,01,55,7.10
2017,12,11,01,56,7.10
2017,12,11,01,57,7.10
2017,12,11,01,58,7.00
2017,12,11,01,59,7.00
2017,12,11,02,00,7.00
2017,12,11,02,01,6.90
2017,12,11,02,02,6.90
2017,12,11,02,03,6.90
2017,12,11,02,04,6.90
2017,12,11,02,05,6.90
2017,12,11,02,06,6.90
2017,12,11,02,07,6.90
2017,12,11,02,08,6.90
2017,12,11,02,09,6.90
2017,12,11,02,10,6.90
2017,12,11,02,11,7.00
2017,12,11,02,12,7.00
2017,12,11,02,13,7.10
2017,12,11,02,14,7.20
2017,12,11,02,15,7.20
2017,12,11,02,16,7.20
2017,12,11,02,17,7.30
2017,12,11,02,18,7.30
2017,12,11,02,19,7.30
2017,12,11,02,20,7.40
2017,12,11,02,21,7.40
2017,12,11,02,22,7.40
2017,12,11,02,23,7.40
2017,12,11,02,24,7.40
2017,12,11,02,25,7.50
2017,12,11,02,26,7.50
2017,12,11,02,27,7.50
2017,12,11,02,28,7.50
2017,12,11,02,29,7.50
2017,12,11,02,30,7.50
2017,12,11,02,31,7.50
2017,12,11,02,32,7.60
2017,12,11,02,33,7.60
2017,12,11,02,34,7.50
2017,12,11,02,35,7.50
2017,12,11,02,36,7.50
2017,12,11,02,37,7.60
2017,12,11,02,38,7.60
2017,12,11,02,39,7.60
2017,12,11,02,40,7.60
2017,12,11,02,41,7.60
2017,12,11,02,42,7.60
2017,12,11,02,43,7.60
2017,12,11,02,44,7.70
2017,12,11,02,45,7.70
2017,12,11,02,46,7.70
2017,12,11,02,47,7.70
2017,12,11,02,48,7.70
2017,12,11,02,49,7.70
2017,12,11,02,50,7.70
2017,12,11,02,51,7.70
2017,12,11,02,52,7.70
2017,12,11,02,53,7.70
2017,12,11,02,54,7.60
2017,12,11,02,55,7.60
2017,12,11,02,56,7.60
2017,12,11,02,57,7.60
2017,12,11,02,58,7.60
2017,12,11,02,59,7.50
2017,12,11,03,00,7.50
2017,12,11,03,01,7.50
2017,12,11,03,02,7.40
2017,12,11,03,03,7.40
2017,12,11,03,04,7.40
2017,12,11,03,05,7.30
2017,12,11,03,06,7.30
2017,12,11,03,07,7.30
2017,12,11,03,08,7.20
2017,12,11,03,09,7.20
2017,12,11,03,10,7.20
2017,12,11,03,11,7.20
2017,12,11,03,12,7.20
2017,12,11,03,13,7.20
2017,12,11,03,14,7.10
2017,12,11,03,15,7.10
2017,12,11,03,16,7.10
2017,12,11,03,17,7.10
2017,12,11,03,18,7.10
2017,12,11,03,19,7.10
2017,12,11,03,20,7.00
2017,12,11,03,21,7.00
2017,12,11,03,22,7.00
2017,12,11,03,23,6.90
2017,12,11,03,24,6.90
2017,12,11,03,25,6.80
2017,12,11,03,26,6.80
2017,12,11,03,27,6.80
2017,12,11,03,28,6.80
2017,12,11,03,29,6.70
2017,12,11,03,30,6.70
2017,12,11,03,31,6.70
2017,12,11,03,32,6.60
2017,12,11,03,33,6.60
2017,12,11,03,34,6.60
2017,12,11,03,35,6.60
2017,12,11,03,36,6.60
2017,12,11,03,37,6.50
2017,12,11,03,38,6.50
2017,12,11,03,39,6.50
2017,12,11,03,40,6.50
2017,12,11,03,41,6.40
2017,12,11,03,42,6.50
2017,12,11,03,43,6.50
2017,12,11,03,44,6.50
2017,12,11,03,45,6.50
2017,12,11,03,46,6.50
2017,12,11,03,47,6.50
2017,12,11,03,48,6.60
2017,12,11,03,49,6.60
2017,12,11,03,50,6.60
2017,12,11,03,51,6.60
2017,12,11,03,52,6.60
2017,12,11,03,53,6.60
2017,12,11,03,54,6.50
2017,12,11,03,55,6.50
2017,12,11,03,56,6.50
2017,12,11,03,57,6.50
2017,12,11,03,58,6.50
2017,12,11,03,59,6.50
2017,12,11,04,00,6.60
2017,12,11,04,01,6.60
2017,12,11,04,02,6.60
2017,12,11,04,03,6.60
2017,12,11,04,04,6.60
2017,12,11,04,05,6.70
2017,12,11,04,06,6.70
2017,12,11,04,07,6.70
2017,12,11,04,08,6.70
2017,12,11,04,09,6.70
2017,12,11,04,10,6.60
2017,12,11,04,11,6.60
2017,12,11,04,12,6.50
2017,12,11,04,13,6.50
2017,12,11,04,14,6.40
2017,12,11,04,15,6.30
2017,12,11,04,16,6.20
2017,12,11,04,17,6.10
2017,12,11,04,18,6.00
2017,12,11,04,19,5.90
2017,12,11,04,20,5.80
2017,12,11,04,21,5.70
2017,12,11,04,22,5.70
2017,12,11,04,23,5.60
2017,12,11,04,24,5.50
2017,12,11,04,25,5.50
2017,12,11,04,26,5.50
2017,12,11,04,27,5.40
2017,12,11,04,28,5.40
2017,12,11,04,29,5.40
2017,12,11,04,30,5.30
2017,12,11,04,31,5.30
2017,12,11,04,32,5.30
2017,12,11,04,33,5.30
2017,12,11,04,34,5.30
2017,12,11,04,35,5.30
2017,12,11,04,36,5.30
2017,12,11,04,37,5.40
2017,12,11,04,38,5.40
2017,12,11,04,39,5.40
2017,12,11,04,40,5.30
2017,12,11,04,41,5.30
2017,12,11,04,42,5.30
2017,12,11,04,43,5.30
2017,12,11,04,44,5.30
2017,12,11,04,45,5.30
2017,12,11,04,46,5.30
2017,12,11,04,47,5.30
2017,12,11,04,48,5.30
2017,12,11,04,49,5.30
2017,12,11,04,50,5.30
2017,12,11,04,51,5.30
2017,12,11,10,47,8.20
2017,12,11,10,48,8.20
2017,12,11,10,49,8.30
2017,12,11,10,50,8.30
2017,12,11,10,51,8.30
2017,12,11,10,52,8.30
2017,12,11,10,53,8.30
2017,12,11,10,54,8.40
2017,12,11,10,55,8.40
2017,12,11,10,56,8.40
2017,12,11,10,57,8.40
2017,12,11,10,58,8.50
2017,12,11,10,59,8.50
2017,12,11,11,00,8.60
2017,12,11,11,01,8.60
2017,12,11,11,02,8.70
2017,12,11,11,03,8.70
2017,12,11,11,04,8.80
2017,12,11,11,05,8.80
2017,12,11,11,06,8.90
2017,12,11,11,07,8.90
2017,12,11,11,08,8.90
2017,12,11,11,09,8.90
2017,12,11,11,10,8.90
2017,12,11,11,11,8.90
2017,12,11,11,12,8.90
2017,12,11,11,13,8.90
2017,12,11,11,14,8.90
2017,12,11,11,15,8.90
2017,12,11,11,16,8.90
2017,12,11,11,17,8.90
2017,12,11,11,18,8.90
2017,12,11,11,19,8.90
2017,12,11,11,20,8.90
2017,12,11,11,21,8.90
2017,12,11,11,22,8.90
2017,12,11,11,23,8.90
2017,12,11,11,24,8.90
2017,12,11,11,25,8.90
2017,12,11,11,26,8.90
2017,12,11,11,27,9.00
2017,12,11,11,28,9.00
2017,12,11,11,29,9.00
2017,12,11,11,30,9.10
2017,12,11,11,31,9.10
2017,12,11,11,32,9.10
2017,12,11,11,33,9.20
2017,12,11,11,34,9.20
2017,12,11,11,35,9.20
2017,12,11,11,36,9.20
2017,12,11,11,37,9.20
2017,12,11,11,38,9.20
2017,12,11,11,39,9.30
2017,12,11,11,40,9.30
2017,12,11,11,41,9.30
2017,12,11,11,42,9.30
2017,12,11,11,43,9.40
2017,12,11,11,44,9.40
2017,12,11,11,45,9.40
2017,12,11,11,46,9.40
2017,12,11,11,47,9.40
2017,12,11,11,48,9.40
2017,12,11,11,49,9.40
2017,12,11,11,50,9.30
2017,12,11,11,51,9.30
2017,12,11,11,52,9.30
2017,12,11,11,53,9.40
2017,12,11,11,54,9.40
2017,12,11,11,55,9.40
2017,12,11,11,56,9.40
2017,12,11,11,57,9.40
2017,12,11,11,58,9.40
2017,12,11,11,59,9.40
2017,12,11,12,00,9.40
2017,12,11,12,01,9.50
2017,12,11,12,02,9.50
2017,12,11,12,03,9.50
2017,12,11,12,04,9.40
2017,12,11,12,05,9.40
2017,12,11,12,06,9.40
2017,12,11,12,07,9.40
2017,12,11,12,08,9.50
2017,12,11,12,09,9.50
2017,12,11,12,10,9.60
2017,12,11,12,11,9.60
2017,12,11,12,12,9.60
2017,12,11,12,13,9.60
2017,12,11,12,14,9.70
2017,12,11,12,15,9.70
2017,12,11,12,16,9.70
2017,12,11,12,17,9.70
2017,12,11,12,18,9.70
2017,12,11,12,19,9.70
2017,12,11,12,20,9.70
2017,12,11,12,21,9.70
2017,12,11,12,22,9.70
2017,12,11,12,23,9.80
2017,12,11,12,24,9.80
2017,12,11,12,25,9.80
2017,12,11,12,26,9.80
2017,12,11,12,27,9.70
2017,12,11,12,28,9.70
2017,12,11,12,29,9.70
2017,12,11,12,30,9.60
2017,12,11,12,31,9.60
2017,12,11,12,32,9.50
2017,12,11,12,33,9.50
2017,12,11,12,34,9.50
2017,12,11,12,35,9.40
2017,12,11,12,36,9.40
2017,12,11,12,37,9.30
2017,12,11,12,38,9.30
2017,12,11,12,39,9.30
2017,12,11,12,40,9.20
2017,12,11,12,41,9.20
2017,12,11,12,42,9.20
2017,12,11,12,43,9.10
2017,12,11,12,44,9.10
2017,12,11,12,45,9.10
2017,12,11,12,46,9.10
2017,12,11,12,47,9.10
2017,12,11,12,48,9.10
2017,12,11,12,49,9.20
2017,12,11,12,50,9.20
2017,12,11,12,51,9.20
2017,12,11,12,52,9.30
2017,12,11,12,53,9.30
2017,12,11,12,54,9.40
2017,12,11,12,55,9.50
2017,12,11,12,56,9.50
2017,12,11,12,57,9.60
2017,12,11,12,58,9.60
2017,12,11,12,59,9.70
2017,12,11,13,00,9.80
2017,12,11,13,01,9.80
2017,12,11,13,02,9.80
2017,12,11,13,03,9.80
2017,12,11,13,04,9.80
2017,12,11,13,05,9.80
2017,12,11,13,06,9.80
2017,12,11,13,07,9.90
2017,12,11,13,08,9.90
2017,12,11,13,09,10.00
2017,12,11,13,10,10.00
2017,12,11,13,11,10.10
2017,12,11,13,12,10.20
2017,12,11,13,13,10.30
2017,12,11,13,14,10.40
2017,12,11,13,15,10.50
2017,12,11,13,16,10.60
2017,12,11,13,17,10.80
2017,12,11,13,18,10.90
2017,12,11,13,19,11.00
2017,12,11,13,20,11.10
2017,12,11,13,21,11.10
2017,12,11,13,22,11.10
2017,12,11,13,23,11.20
2017,12,11,13,24,11.30
2017,12,11,13,25,11.40
2017,12,11,13,26,11.70
2017,12,11,13,27,11.90
2017,12,11,13,28,12.20
2017,12,11,13,29,12.50
2017,12,11,13,30,12.70
2017,12,11,13,31,12.90
2017,12,11,13,32,13.10
2017,12,11,13,33,13.20
2017,12,11,13,34,13.40
2017,12,11,13,35,13.50
2017,12,11,13,36,13.60
2017,12,11,13,37,13.70
2017,12,11,13,38,13.70
2017,12,11,13,39,13.70
2017,12,11,13,40,13.70
2017,12,11,13,41,13.70
2017,12,11,13,42,13.70
2017,12,11,13,43,13.70
2017,12,11,13,44,13.70
2017,12,11,13,45,13.70
2017,12,11,13,46,13.80
2017,12,11,13,47,13.80
2017,12,11,13,48,13.80
2017,12,11,13,49,13.80
2017,12,11,13,50,13.70
2017,12,11,13,51,13.80
2017,12,11,13,52,13.80
2017,12,11,13,53,13.80
2017,12,11,13,54,13.80
2017,12,11,13,55,13.80
2017,12,11,13,56,13.80
2017,12,11,13,57,13.80
2017,12,11,13,58,13.80
2017,12,11,13,59,13.80
2017,12,11,14,00,13.80
2017,12,11,14,01,13.80
2017,12,11,14,02,13.80
2017,12,11,14,03,13.80
2017,12,11,14,04,13.70
2017,12,11,14,05,13.70
2017,12,11,14,06,13.70
2017,12,11,14,07,13.70
2017,12,11,14,08,13.70
2017,12,11,14,09,13.70
2017,12,11,14,10,13.70
2017,12,11,14,11,13.70
2017,12,11,14,12,13.70
2017,12,11,14,13,13.70
2017,12,11,14,14,13.70
2017,12,11,14,15,13.70
2017,12,11,14,16,13.70
2017,12,11,14,17,13.70
2017,12,11,14,18,13.70
2017,12,11,14,19,13.70
2017,12,11,14,20,13.70
2017,12,11,14,21,13.70
2017,12,11,14,22,13.70
2017,12,11,14,23,13.80
2017,12,11,14,24,13.80
2017,12,11,14,25,13.80
2017,12,11,14,26,13.80
2017,12,11,14,27,13.90
2017,12,11,14,28,13.90
2017,12,11,14,29,13.90
2017,12,11,14,30,14.00
2017,12,11,14,31,14.00
2017,12,11,14,32,14.00
2017,12,11,14,33,14.10
2017,12,11,14,34,14.10
2017,12,11,14,35,14.10
2017,12,11,14,36,14.10
2017,12,11,14,37,14.20
2017,12,11,14,38,14.20
2017,12,11,14,39,14.20
2017,12,11,14,40,14.20
2017,12,11,14,41,14.20
2017,12,11,14,42,14.10
2017,12,11,14,43,14.10
2017,12,11,14,44,14.10
2017,12,11,14,45,14.10
2017,12,11,14,46,14.10
2017,12,11,14,47,14.10
2017,12,11,14,48,14.00
2017,12,11,14,49,14.00
2017,12,11,14,50,13.90
2017,12,11,14,51,13.90
2017,12,11,14,52,13.90
2017,12,11,14,53,13.90
2017,12,11,14,54,13.90
2017,12,11,14,55,13.90
2017,12,11,14,56,13.90
2017,12,11,14,57,13.80
2017,12,11,14,58,13.80
2017,12,11,14,59,13.80
2017,12,11,15,00,13.80
2017,12,11,15,01,13.80
2017,12,11,15,02,13.80
2017,12,11,15,03,13.80
2017,12,11,15,04,13.80
2017,12,11,15,05,13.80
2017,12,11,15,06,13.80
2017,12,11,15,07,13.80
2017,12,11,15,08,13.80
2017,12,11,15,09,13.80
2017,12,11,15,10,13.80
2017,12,11,15,11,13.80
2017,12,11,15,12,13.70
2017,12,11,15,13,13.70
2017,12,11,15,14,13.70
2017,12,11,15,15,13.60
2017,12,11,15,16,13.60
2017,12,11,15,17,13.60
2017,12,11,15,18,13.60
2017,12,11,15,19,13.60
2017,12,11,15,20,13.60
2017,12,11,15,21,13.50
2017,12,11,15,22,13.50
2017,12,11,15,23,13.50
2017,12,11,15,24,13.40
2017,12,11,15,25,13.40
2017,12,11,15,26,13.40
2017,12,11,15,27,13.40
2017,12,11,15,28,13.40
2017,12,11,15,29,13.40
2017,12,11,15,30,13.30
2017,12,11,15,31,13.30
2017,12,11,15,32,13.20
2017,12,11,15,33,13.10
2017,12,11,15,34,13.00
2017,12,11,15,35,13.00
2017,12,11,15,36,12.90
2017,12,11,15,37,12.90
2017,12,11,15,38,12.90
2017,12,11,15,39,12.90
2017,12,11,15,40,12.80
2017,12,11,15,41,12.80
2017,12,11,15,42,12.80
2017,12,11,15,43,12.80
2017,12,11,15,44,12.80
2017,12,11,15,45,12.80
2017,12,11,15,46,12.80
2017,12,11,15,47,12.80
2017,12,11,15,48,12.80
2017,12,11,15,49,12.80
2017,12,11,15,50,12.70
2017,12,11,15,51,12.70
2017,12,11,15,52,12.70
2017,12,11,15,53,12.70
2017,12,11,15,54,12.70
2017,12,11,15,55,12.60
2017,12,11,15,56,12.60
2017,12,11,15,57,12.60
2017,12,11,15,58,12.50
2017,12,11,15,59,12.40
2017,12,11,16,00,12.40
2017,12,11,16,01,12.30
2017,12,11,16,02,12.20
2017,12,11,16,03,12.10
2017,12,11,16,04,12.10
2017,12,11,16,05,12.00
2017,12,11,16,06,12.00
2017,12,11,16,07,11.90
2017,12,11,16,08,11.90
2017,12,11,16,09,11.90
2017,12,11,16,10,11.80
2017,12,11,16,11,11.80
2017,12,11,16,12,11.80
2017,12,11,16,13,11.80
2017,12,11,16,14,11.80
2017,12,11,16,15,11.80
2017,12,11,16,16,11.90
2017,12,11,16,17,11.90
2017,12,11,16,18,11.90
2017,12,11,16,19,11.90
2017,12,11,16,20,11.90
2017,12,11,16,21,11.90
2017,12,11,16,22,11.90
2017,12,11,16,23,11.90
2017,12,11,16,24,12.00
2017,12,11,16,25,12.00
2017,12,11,16,26,12.10
2017,12,11,16,27,12.10
2017,12,11,16,28,12.10
2017,12,11,16,29,12.10
2017,12,11,16,30,12.10
2017,12,11,16,31,12.10
2017,12,11,16,32,12.10
2017,12,11,16,33,12.10
2017,12,11,16,34,12.10
2017,12,11,16,35,12.10
2017,12,11,16,36,12.10
2017,12,11,16,37,12.10
2017,12,11,16,38,12.10
2017,12,11,16,39,12.10
2017,12,11,16,40,12.00
2017,12,11,16,41,12.00
2017,12,11,16,42,12.00
2017,12,11,16,43,12.00
2017,12,11,16,44,12.00
2017,12,11,16,45,12.00
2017,12,11,16,46,12.10
2017,12,11,16,47,12.10
2017,12,11,16,48,12.10
2017,12,11,16,49,12.10
2017,12,11,16,50,12.10
2017,12,11,16,51,12.10
2017,12,11,16,52,12.00
2017,12,11,16,53,12.00
2017,12,11,16,54,12.00
2017,12,11,16,55,12.00
2017,12,11,16,56,11.90
2017,12,11,16,57,11.90
2017,12,11,16,58,11.90
2017,12,11,16,59,11.90
2017,12,11,17,00,11.90
2017,12,11,17,01,11.90
2017,12,11,17,02,11.90
2017,12,11,17,03,11.80
2017,12,11,17,04,11.80
2017,12,11,17,05,11.80
2017,12,11,17,06,11.80
2017,12,11,17,07,11.80
2017,12,11,17,08,11.70
2017,12,11,17,09,11.70
2017,12,11,17,10,11.70
2017,12,11,17,11,11.80
2017,12,11,17,12,11.80
2017,12,11,17,13,11.80
2017,12,11,17,14,11.80
2017,12,11,17,15,11.70
2017,12,11,17,16,11.70
2017,12,11,17,17,11.70
2017,12,11,17,18,11.70
2017,12,11,17,19,11.60
2017,12,11,17,20,11.70
2017,12,11,17,21,11.70
2017,12,11,17,22,11.70
2017,12,11,17,23,11.80
2017,12,11,17,24,11.80
2017,12,11,17,25,11.80
2017,12,11,17,26,11.80
2017,12,11,17,27,11.80
2017,12,11,17,28,11.80
2017,12,11,17,29,11.80
2017,12,11,17,30,11.80
2017,12,11,17,31,11.80
2017,12,11,17,32,11.70
2017,12,11,17,33,11.70
2017,12,11,17,34,11.70
2017,12,11,17,35,11.60
2017,12,11,17,36,11.60
2017,12,11,17,37,11.60
2017,12,11,17,38,11.60
2017,12,11,17,39,11.60
2017,12,11,17,40,11.60
2017,12,11,17,41,11.50
2017,12,11,17,42,11.50
2017,12,11,17,43,11.40
2017,12,11,17,44,11.40
2017,12,11,17,45,11.30
2017,12,11,17,46,11.20
2017,12,11,17,47,11.20
2017,12,11,17,48,11.10
2017,12,11,17,49,11.00
2017,12,11,17,50,10.90
2017,12,11,17,51,10.80
2017,12,11,17,52,10.60
2017,12,11,17,53,10.50
2017,12,11,17,54,10.30
2017,12,11,17,55,10.20
2017,12,11,17,56,10.20
2017,12,11,17,57,10.10
2017,12,11,17,58,10.00
2017,12,11,17,59,9.90
2017,12,11,18,00,9.90
2017,12,11,18,01,9.80
2017,12,11,18,02,9.80
2017,12,11,18,03,9.70
2017,12,11,18,04,9.70
2017,12,11,18,05,9.60
2017,12,11,18,06,9.60
2017,12,11,18,07,9.60
2017,12,11,18,08,9.60
2017,12,11,18,09,9.50
2017,12,11,18,10,9.50
2017,12,11,18,11,9.50
2017,12,11,18,12,9.50
2017,12,11,18,13,9.50
2017,12,11,18,14,9.40
2017,12,11,18,15,9.50
2017,12,11,18,16,9.50
2017,12,11,18,17,9.60
2017,12,11,18,18,9.70
2017,12,11,18,19,9.80
2017,12,11,18,20,10.00
2017,12,11,18,21,10.10
2017,12,11,18,22,10.30
2017,12,11,18,23,10.40
2017,12,11,18,24,10.60
2017,12,11,18,25,10.70
2017,12,11,18,26,10.80
2017,12,11,18,27,10.90
2017,12,11,18,28,11.00
2017,12,11,18,29,11.10
2017,12,11,18,30,11.20
2017,12,11,18,31,11.20
2017,12,11,18,32,11.20
2017,12,11,18,33,11.30
2017,12,11,18,34,11.30
2017,12,11,18,35,11.30
2017,12,11,18,36,11.30
2017,12,11,18,37,11.30
2017,12,11,18,38,11.30
2017,12,11,18,39,11.30
2017,12,11,18,40,11.40
2017,12,11,18,41,11.40
2017,12,11,18,42,11.40
2017,12,11,18,43,11.40
2017,12,11,18,44,11.40
2017,12,11,18,45,11.40
2017,12,11,18,46,11.40
2017,12,11,18,47,11.40
2017,12,11,18,48,11.40
2017,12,11,18,49,11.40
2017,12,11,18,50,11.40
2017,12,11,18,51,11.30
2017,12,11,18,52,11.30
2017,12,11,18,53,11.30
2017,12,11,18,54,11.30
2017,12,11,18,55,11.30
2017,12,11,18,56,11.30
2017,12,11,18,57,11.30
2017,12,11,18,58,11.30
2017,12,11,18,59,11.30
2017,12,11,19,00,11.30
2017,12,11,19,01,11.20
2017,12,11,19,02,11.20
2017,12,11,19,03,11.20
2017,12,11,19,04,11.10
2017,12,11,19,05,11.10
2017,12,11,19,06,11.00
2017,12,11,19,07,10.90
2017,12,11,19,08,10.90
2017,12,11,19,09,10.80
2017,12,11,19,10,10.80
2017,12,11,19,11,10.70
2017,12,11,19,12,10.70
2017,12,11,19,13,10.60
2017,12,11,19,14,10.60
2017,12,11,19,15,10.60
2017,12,11,19,16,10.50
2017,12,11,19,17,10.40
2017,12,11,19,18,10.30
2017,12,11,19,19,10.30
2017,12,11,19,20,10.20
2017,12,11,19,21,10.10
2017,12,11,19,22,10.00
2017,12,11,19,23,10.00
2017,12,11,19,24,9.90
2017,12,11,19,25,9.80
2017,12,11,19,26,9.80
2017,12,11,19,27,9.80
2017,12,11,19,28,9.70
2017,12,11,19,29,9.70
2017,12,11,19,30,9.60
2017,12,11,19,31,9.60
2017,12,11,19,32,9.60
2017,12,11,19,33,9.50
2017,12,11,19,34,9.50
2017,12,11,19,35,9.40
2017,12,11,19,36,9.40
2017,12,11,19,37,9.30
2017,12,11,19,38,9.30
2017,12,11,19,39,9.20
2017,12,11,19,40,9.20
2017,12,11,19,41,9.10
2017,12,11,19,42,9.00
2017,12,11,19,43,9.00
2017,12,11,19,44,8.90
2017,12,11,19,45,8.90
2017,12,11,19,46,8.80
2017,12,11,19,47,8.80
2017,12,11,19,48,8.70
2017,12,11,19,49,8.70
2017,12,11,19,50,8.70
2017,12,11,19,51,8.60
2017,12,11,19,52,8.60
2017,12,11,19,53,8.60
2017,12,11,19,54,8.60
2017,12,11,19,55,8.60
2017,12,11,19,56,8.50
2017,12,11,19,57,8.50
2017,12,11,19,58,8.40
2017,12,11,19,59,8.40
2017,12,11,20,00,8.40
2017,12,11,20,01,8.30
2017,12,11,20,02,8.30
2017,12,11,20,03,8.30
2017,12,11,20,04,8.20
2017,12,11,20,05,8.20
2017,12,11,20,06,8.20
2017,12,11,20,07,8.20
2017,12,11,20,08,8.20
2017,12,11,20,09,8.10
2017,12,11,20,10,8.10
2017,12,11,20,11,8.10
2017,12,11,20,12,8.10
2017,12,11,20,13,8.10
2017,12,11,20,14,8.10
2017,12,11,20,15,8.10
2017,12,11,20,16,8.10
2017,12,11,20,17,8.10
2017,12,11,20,18,8.10
2017,12,11,20,19,8.10
2017,12,11,20,20,8.10
2017,12,11,20,21,8.10
2017,12,11,20,22,8.10
2017,12,11,20,23,8.10
2017,12,11,20,24,8.10
2017,12,11,20,25,8.10
2017,12,11,20,26,8.10
2017,12,11,20,27,8.10
2017,12,11,20,28,8.10
2017,12,11,20,29,8.10
2017,12,11,20,30,8.20
2017,12,11,20,31,8.10
2017,12,11,20,32,8.10
2017,12,11,20,33,8.10
2017,12,11,20,34,8.10
2017,12,11,20,35,8.10
2017,12,11,20,36,8.10
2017,12,11,20,37,8.10
2017,12,11,20,38,8.10
2017,12,11,20,39,8.10
2017,12,11,20,40,8.10
2017,12,11,20,41,8.10
2017,12,11,20,42,8.10
2017,12,11,20,43,8.10
2017,12,11,20,44,8.10
2017,12,11,20,45,8.10
2017,12,11,20,46,8.10
2017,12,11,20,47,8.10
2017,12,11,20,48,8.10
2017,12,11,20,49,8.10
2017,12,11,20,50,8.10
2017,12,11,20,51,8.10
2017,12,11,20,52,8.10
2017,12,11,20,53,8.10
2017,12,11,20,54,8.10
2017,12,11,20,55,8.10
2017,12,11,20,56,8.10
2017,12,11,20,57,8.10
2017,12,11,20,58,8.10
2017,12,11,20,59,8.10
2017,12,11,21,00,8.10
2017,12,11,21,01,8.10
2017,12,11,21,02,8.10
2017,12,11,21,03,8.10
2017,12,11,21,04,8.10
2017,12,11,21,05,8.10
2017,12,11,21,06,8.10
2017,12,11,21,07,8.10
2017,12,11,21,08,8.10
2017,12,11,21,09,8.10
2017,12,11,21,10,8.10
2017,12,11,21,11,8.10
2017,12,11,21,12,8.00
2017,12,11,21,13,8.00
2017,12,11,21,14,8.00
2017,12,11,21,15,8.00
2017,12,11,21,16,8.00
2017,12,11,21,17,8.00
2017,12,11,21,18,8.00
2017,12,11,21,19,8.00
2017,12,11,21,20,8.00
2017,12,11,21,21,8.00
2017,12,11,21,22,8.00
2017,12,11,21,23,8.00
2017,12,11,21,24,8.00
2017,12,11,21,25,7.90
2017,12,11,21,26,7.90
2017,12,11,21,27,7.90
2017,12,11,21,28,7.90
2017,12,11,21,29,7.90
2017,12,11,21,30,7.90
2017,12,11,21,31,7.90
2017,12,11,21,32,8.00
2017,12,11,21,33,8.00
2017,12,11,21,34,8.00
2017,12,11,21,35,8.00
2017,12,11,21,36,8.00
2017,12,11,21,37,8.00
2017,12,11,21,38,8.00
2017,12,11,21,39,8.00
2017,12,11,21,40,8.00
2017,12,11,21,41,8.00
2017,12,11,21,42,8.00
2017,12,11,21,43,8.00
2017,12,11,21,44,8.00
2017,12,11,21,45,8.00
2017,12,11,21,46,8.00
2017,12,11,21,47,8.00
2017,12,11,21,48,8.00
2017,12,11,21,49,8.10
2017,12,11,21,50,8.10
2017,12,11,21,51,8.10
2017,12,11,21,52,8.10
2017,12,11,21,53,8.10
2017,12,11,21,54,8.10
2017,12,11,21,55,8.20
2017,12,11,21,56,8.20
2017,12,11,21,57,8.20
2017,12,11,21,58,8.20
2017,12,11,21,59,8.20
2017,12,11,22,00,8.20
2017,12,11,22,01,8.20
2017,12,11,22,02,8.20
2017,12,11,22,03,8.20
2017,12,11,22,04,8.20
2017,12,11,22,05,8.20
2017,12,11,22,06,8.20
2017,12,11,22,07,8.20
2017,12,11,22,08,8.20
2017,12,11,22,09,8.20
2017,12,11,22,10,8.20
2017,12,11,22,11,8.20
2017,12,11,22,12,8.20
2017,12,11,22,13,8.20
2017,12,11,22,14,8.30
2017,12,11,22,15,8.30
2017,12,11,22,16,8.30
2017,12,11,22,17,8.30
2017,12,11,22,18,8.30
2017,12,11,22,19,8.20
2017,12,11,22,20,8.20
2017,12,11,22,21,8.20
2017,12,11,22,22,8.20
2017,12,11,22,23,8.20
2017,12,11,22,24,8.20
2017,12,11,22,25,8.20
2017,12,11,22,26,8.20
2017,12,11,22,27,8.20
2017,12,11,22,28,8.20
2017,12,11,22,29,8.20
2017,12,11,22,30,8.20
2017,12,11,22,31,8.20
2017,12,11,22,32,8.20
2017,12,11,22,33,8.20
2017,12,11,22,34,8.20
2017,12,11,22,35,8.20
2017,12,11,22,36,8.20
2017,12,11,22,37,8.20
2017,12,11,22,38,8.20
2017,12,11,22,39,8.20
2017,12,11,22,40,8.20
2017,12,11,22,41,8.20
2017,12,11,22,42,8.20
2017,12,11,22,43,8.30
2017,12,11,22,44,8.30
2017,12,11,22,45,8.30
2017,12,11,22,46,8.30
2017,12,11,22,47,8.30
2017,12,11,22,48,8.30
2017,12,11,22,49,8.30
2017,12,11,22,50,8.30
2017,12,11,22,51,8.30
2017,12,11,22,52,8.30
2017,12,11,22,53,8.30
2017,12,11,22,54,8.30
2017,12,11,22,55,8.30
2017,12,11,22,56,8.30
2017,12,11,22,57,8.30
2017,12,11,22,58,8.30
2017,12,11,22,59,8.30
2017,12,11,23,00,8.30
2017,12,11,23,01,8.30
2017,12,11,23,02,8.30
2017,12,11,23,03,8.40
2017,12,11,23,04,8.40
2017,12,11,23,05,8.40
2017,12,11,23,06,8.40
2017,12,11,23,07,8.40
2017,12,11,23,08,8.40
2017,12,11,23,09,8.40
2017,12,11,23,10,8.40
2017,12,11,23,11,8.40
2017,12,11,23,12,8.40
2017,12,11,23,13,8.40
2017,12,11,23,14,8.40
2017,12,11,23,15,8.40
2017,12,11,23,16,8.40
2017,12,11,23,17,8.40
2017,12,11,23,18,8.40
2017,12,11,23,19,8.40
2017,12,11,23,20,8.50
2017,12,11,23,21,8.50
2017,12,11,23,22,8.50
2017,12,11,23,23,8.50
2017,12,11,23,24,8.50
2017,12,11,23,25,8.50
2017,12,11,23,26,8.50
2017,12,11,23,27,8.50
2017,12,11,23,28,8.50
2017,12,11,23,29,8.50
2017,12,11,23,30,8.50
2017,12,11,23,31,8.50
2017,12,11,23,32,8.50
2017,12,11,23,33,8.50
2017,12,11,23,34,8.50
2017,12,11,23,35,8.50
2017,12,11,23,36,8.50
2017,12,11,23,37,8.50
2017,12,11,23,38,8.50
2017,12,11,23,39,8.50
2017,12,11,23,40,8.50
2017,12,11,23,41,8.60
2017,12,11,23,42,8.60
2017,12,11,23,43,8.60
2017,12,11,23,44,8.60
2017,12,11,23,45,8.60